Regional Weather Roundup
Issued by NWS

Home | Current Version | Previous Version | Graphics & Text | Print | Product List | Glossary On
Versions: 1 2 3 4 5 6 7 8 9 10 11 12 13 14 15 16 17 18 19 20 21 22 23 24 25 26 27 28 29 30 31 32 33 34 35 36 37 38 39 40 41 42 43 44 45 46 47 48 49 50
000
ASUS43 KLMK 262110
RWRKY
KENTUCKY REGIONAL WEATHER ROUNDUP
NATIONAL WEATHER SERVICE LOUISVILLE KY
500 PM EDT THU APR 26 2018

NOTE "FAIR" INDICATES FEW OR NO CLOUDS BELOW 12,000 FEET
WITH NO SIGNIFICANT WEATHER AND/OR OBSTRUCTIONS TO VISIBILITY.

KYZ001>023-026-027-061>063-070>075-262200-
WESTERN AND SOUTH CENTRAL KENTUCKY

CITY           SKY/WX    TMP DP  RH WIND       PRES   REMARKS
PADUCAH        FAIR      66  44  45 N5        29.87F
HENDERSON      FAIR      65  35  33 NW7       29.88S
OWENSBORO      FAIR      68  40  35 NW12      29.86S
HOPKINSVILLE   FAIR      58  51  77 NW7       29.87F
BOWLING GREEN  PTSUNNY   61  56  83 SW8       29.87S
GLASGOW        FAIR      61  52  72 W5        29.86F
$$

KYZ024-025-028>034-038-045-046-053-262200-
NORTH CENTRAL KENTUCKY

CITY           SKY/WX    TMP DP  RH WIND       PRES   REMARKS
LOUISVILLE/SDF FAIR      71  41  33 VRB7      29.82F
LOUISVILLE/LOU FAIR      70  41  34 W6        29.83F
FORT KNOX      CLOUDY    68  44  42 SE6       29.83F
$$

KYZ035>037-039>044-047>052-055>060-089>105-262200-
NORTHEAST KENTUCKY

CITY           SKY/WX    TMP DP  RH WIND       PRES   REMARKS
LEXINGTON      FAIR      66  47  50 NE3       29.84F
COVINGTON      PTSUNNY   67  34  29 NW5       29.83F
FRANKFORT      FAIR      67  42  40 CALM      29.82F
$$

KYZ054-064>069-076>088-106>120-262200-
SOUTHEAST KENTUCKY

CITY           SKY/WX    TMP DP  RH WIND       PRES   REMARKS
JACKSON        CLOUDY    62  42  47 CALM      29.85F
LONDON         CLOUDY    60  46  59 SW3       29.85F
SOMERSET       LGT RAIN  59  46  63 CALM      29.87S
MIDDLESBORO    DRIZZLE   58  46  63 CALM      29.86F
MONTICELLO     NOT AVBL
$$





USA.gov is the U.S. government's official web portal to all federal, state and local government web resources and services.